Location: Bazugues
(43.4465°N, 0.3432°E)
Time: 18:50:29
(UTC+00:00)

Cosmos 2251 Rocket - Pass Details

Date: 12 January 2026
Orbit: 762 x 787 km, 74.0° (Epoch: 13 February)

Event Time Altitude Azimuth Distance (km) Brightness Sun altitude
Rises 17:45:11 0° 336° (NNW) 3,259 6.8 -10.9°
Reaches altitude 10° 17:47:36 10° 333° (NNW) 2,324 6.1 -11.3°
Maximum altitude 17:52:47 61° 254° (WSW) 870 4.1 -12.2°
Drops below altitude 10° 17:57:54 10° 175° (S) 2,293 6.1 -13.0°
Sets 18:00:16 0° 172° (S) 3,213 6.8 -13.5°
